Terminal Aerodrome Forecast
Issued by NWS Midland/Odessa, TX

Home | Current Version | Previous Version | Text Only | Print | Product List | Glossary On
Versions: 1 2 3 4 5 6 7 8 9 10 11 12 13 14 15 16 17 18 19 20 21 22 23 24 25
000
FTUS44 KMAF 152300
TAFMAF
TAF
KMAF 152320Z 1600/1624 15007KT P6SM BKN050
      TEMPO 1612/1616 5SM BR BKN012=

USA.gov is the U.S. government's official web portal to all federal, state and local government web resources and services.